Snowfall_Accumulation
0.0 0.0 0.0 0.0 0.0 0.0 0.0 0.0 0.1 0.3 0.0 0.0 0.0 0.0 0.0 0.0 0.0 0.0 0.0 0.0 0.0 0.0 0.0 0.0 0.0 0.0 0.0 0.0 0.0 0.0 0.0 0.0 0.0 0.0 0.0 0.0 0.0 0.0
0.0 0.0 0.0 0.0 0.0 0.0 0.0 0.0 0.0 0.2 0.3 0.0 0.0 0.0 0.0 0.0 0.0 0.0 0.0 0.0 0.0 0.0 0.1 0.1 0.1 0.1 0.1 0.0 0.0 0.0 0.0 0.0 0.0 0.0 0.0 0.0 0.0 0.0
0.0 0.0 0.0 0.1 0.0 0.0 0.0 0.0 0.1 0.1 0.3 0.1 0.1 0.1 0.1 0.0 0.0 0.0 0.0 0.0 0.0 0.1 0.1 0.1 0.1 0.1 0.1 0.1 0.1 0.1 0.0 0.0 0.0 0.0 0.0 0.0 0.0 0.0
0.0 0.0 0.1 0.1 0.0 0.1 0.0 0.2 0.2 0.3 0.8 0.9 0.3 0.2 0.1 0.1 0.0 0.0 0.0 0.0 0.0 0.0 0.1 0.2 0.2 0.2 0.2 0.2 0.2 0.1 0.1 0.0 0.0 0.0 0.0 0.0 0.0 0.0
0.1 0.1 0.1 0.1 0.2 0.2 0.3 0.2 0.3 0.4 0.6 1.0 0.5 0.1 0.1 0.0 0.1 0.1 0.0 0.0 0.0 0.0 0.0 0.1 0.1 0.2 0.3 0.3 0.3 0.2 0.2 0.2 0.1 0.1 0.1 0.0 0.0 0.0
0.3 0.3 0.5 0.4 0.5 0.4 0.4 0.5 0.7 0.8 0.9 1.3 1.5 1.0 0.8 0.3 0.3 0.3 0.2 0.1 0.1 0.1 0.1 0.0 0.1 0.2 0.2 0.2 0.2 0.3 0.3 0.3 0.4 0.3 0.3 0.2 0.1 0.1
0.3 0.3 0.3 0.2 0.2 0.3 0.4 0.8 1.0 1.5 2.2 2.7 2.4 1.7 1.0 0.8 0.8 0.6 0.8 0.4 0.3 0.1 0.1 0.1 0.1 0.1 0.1 0.1 0.1 0.1 0.2 0.4 0.5 0.5 0.5 0.4 0.2 0.1
0.3 0.5 0.4 0.4 0.3 0.3 0.4 0.8 1.6 2.5 3.4 3.7 3.4 2.4 1.2 0.9 0.8 1.1 1.5 2.3 1.8 0.4 0.4 0.4 0.2 0.2 0.2 0.1 0.1 0.3 0.4 0.7 0.8 0.9 0.7 0.6 0.4 0.2
0.7 0.6 0.5 0.4 0.5 0.4 0.4 0.9 1.4 1.8 2.3 2.6 2.6 1.7 1.3 1.1 2.1 3.4 3.4 3.7 2.8 1.0 1.0 1.1 0.3 0.4 0.2 0.2 0.2 0.3 0.4 0.6 0.7 0.8 0.8 0.6 0.5 0.4
0.6 0.5 0.6 0.5 0.4 0.6 1.2 1.7 1.1 0.6 0.6 0.7 0.9 1.0 1.1 1.2 2.7 4.9 4.8 3.8 1.8 0.7 0.8 2.0 0.7 0.5 0.2 0.2 0.2 0.3 0.4 0.5 0.8 0.9 0.9 0.7 0.6 0.5
0.4 0.4 0.6 0.5 0.6 1.6 2.7 2.4 1.1 0.3 0.1 0.5 0.8 0.8 0.8 0.8 1.2 3.6 5.0 5.6 4.1 1.1 0.7 1.9 1.4 1.2 1.0 0.7 0.2 0.4 0.8 0.7 1.0 0.9 0.9 1.0 0.7 0.7
0.6 0.5 0.5 0.6 1.1 2.2 2.6 2.2 1.5 0.6 0.8 0.6 0.4 0.2 0.2 0.3 0.6 2.7 6.7 10.6 8.1 4.5 1.2 2.5 3.0 3.6 4.5 1.6 1.7 1.2 1.0 1.1 1.1 0.9 1.0 1.0 1.0 1.2
1.2 0.9 0.3 1.0 1.8 2.0 1.8 1.2 1.4 2.0 1.7 1.0 0.7 0.5 0.5 0.4 0.5 1.1 3.7 10.4 13.6 8.6 2.4 6.2 7.7 5.1 8.7 6.3 2.8 2.1 2.0 2.2 1.9 1.2 1.0 1.0 1.1 1.4
1.4 0.9 0.8 1.6 1.7 1.3 0.9 1.0 1.3 1.2 1.0 1.3 1.2 1.2 1.3 1.3 1.6 1.8 2.6 4.7 7.7 8.8 5.6 8.5 13.3 10.0 12.4 9.8 4.9 3.4 2.1 3.0 3.9 2.7 1.6 0.9 0.8 1.0
1.1 1.3 1.4 1.3 1.1 1.1 0.9 1.1 1.3 1.5 2.1 3.0 2.7 2.1 2.0 2.4 2.6 3.4 3.5 3.8 4.4 4.9 6.6 6.9 10.1 11.0 13.2 12.8 9.1 7.2 7.7 4.8 4.8 4.6 3.2 2.1 1.3 1.2
1.5 1.3 1.1 0.9 0.9 1.1 1.0 1.3 1.4 2.2 3.8 5.3 4.8 3.6 3.4 4.1 5.5 6.7 8.0 8.5 10.3 8.8 7.7 7.4 7.6 10.8 12.7 10.1 11.0 10.4 10.2 10.6 7.5 5.9 4.5 3.1 1.6 1.2
1.8 1.2 1.2 1.2 1.3 1.5 1.4 1.6 1.7 2.3 3.9 5.0 5.8 6.5 6.5 7.6 9.3 11.0 12.1 12.0 11.9 10.3 8.3 6.6 5.9 6.4 8.2 9.2 10.2 9.8 10.4 10.5 8.1 5.5 5.4 5.4 2.5 1.8
1.5 1.5 1.6 1.8 2.1 2.2 2.3 2.2 2.4 3.2 5.0 6.7 7.8 8.9 10.9 11.8 12.1 11.8 12.3 12.5 11.7 9.2 7.7 6.2 6.1 6.5 6.1 5.4 7.5 10.1 10.8 10.9 7.4 6.1 6.2 7.5 5.7 3.1
1.8 2.0 2.0 2.2 2.6 3.0 3.4 4.1 3.8 4.0 6.1 8.5 10.7 12.5 13.7 14.0 13.7 13.0 11.7 10.6 9.2 7.1 6.3 5.5 6.2 10.4 11.2 7.4 5.4 7.4 12.5 12.8 8.8 6.9 6.4 7.1 7.3 4.7
2.4 3.4 3.5 3.1 3.4 4.0 4.8 5.7 6.5 7.1 8.1 10.8 12.2 13.7 15.1 15.7 14.3 11.9 10.0 9.0 8.1 6.4 4.9 4.1 5.1 9.9 15.6 14.2 11.1 9.0 8.8 13.0 14.1 12.2 7.5 5.1 4.5 3.0
3.7 4.2 4.5 4.2 4.0 5.3 6.2 7.6 9.1 10.9 11.5 13.3 14.0 14.9 15.4 15.3 12.7 9.3 7.7 6.3 6.5 6.6 6.3 4.7 4.1 5.4 9.5 12.5 11.2 8.1 9.1 7.6 9.9 15.4 14.7 12.6 9.7 7.1
3.2 3.9 4.2 4.5 5.0 6.5 7.5 9.1 10.8 11.6 12.9 13.9 14.8 14.9 13.9 12.6 10.7 7.6 6.5 6.6 6.3 6.0 5.7 4.6 3.7 4.5 7.5 11.2 10.2 7.8 8.1 8.2 6.1 4.9 7.3 11.5 18.8 19.2
3.5 4.3 5.1 5.4 6.4 7.7 9.5 10.6 11.4 12.2 13.7 14.9 14.9 13.3 11.5 9.5 7.3 6.8 6.6 6.7 6.7 6.1 5.7 5.4 4.9 4.9 5.8 7.5 8.8 8.0 7.2 6.8 6.5 6.8 8.8 5.6 5.9 7.1